#timestamp,LO_Frequency,Hit,StdDev 
1573455615.2,286047002.3,N
1573455635.1,286047002.8,N
1573455636.0,286047002.8,N
1573455655.8,286047000.2,N
1573455675.6,286047002.4,N
1573455695.5,286047001.5,N
1573455715.3,286047002.2,N
1573455735.2,286047001.6,N
1573455755.9,286047002.6,N
1573455775.7,286047000.3,N
1573455795.6,286046999.4,N
1573455815.4,286047000.3,N
1573455835.2,286047004.3,N
1573455855.1,286047002.2,N
1573455856.0,286047002.2,N
1573455875.8,286046998.1,N
1573455895.7,286047000.7,N
1573455915.5,286046999.7,N
1573455935.3,286046999.9,N
1573455955.2,286047001.1,N
1573455975.0,286047001.1,N
1573455975.9,286047001.1,N
1573455995.7,286046998.4,N
1573456015.6,286046998.1,N
1573456035.4,286047000.3,N
1573456055.3,286047000.5,N
1573456075.1,286046999.9,N
1573456076.0,286046999.9,N
1573456095.8,286047001.0,N
1573456115.7,286047000.0,N
1573456135.5,286047002.0,N
1573456155.3,286047002.8,N
1573456175.2,286047000.8,N
1573456195.0,286046998.4,N
1573456195.9,286046998.4,N
1573456215.8,286046998.1,N
1573456235.6,286047000.4,N
1573456255.4,286047000.9,N
1573456275.3,286047001.2,N
1573456295.1,286047000.4,N
1573456315.9,286047000.8,N
1573456335.7,286047001.2,N
1573456355.5,286046998.8,N
1573456375.4,286046998.5,N
1573456395.2,286046998.3,N
1573456415.0,286047002.0,N
1573456415.9,286047002.0,N
1573456435.8,286046998.1,N
1573456455.6,286046999.0,N
1573456475.5,286046999.6,N
1573456495.3,286046997.0,N
1573456515.1,286046998.9,N
1573456535.9,286046999.1,N
1573456555.7,286046999.0,N
1573456575.5,286046997.0,N
1573456595.4,286046998.4,N
1573456615.2,286047001.1,N
1573456635.1,286047000.3,N
1573456636.0,286047000.3,N
1573456655.8,286046998.8,N
1573456675.6,286046998.4,N
1573456695.5,286046998.2,N
1573456715.3,286046996.5,N
1573456735.1,286046997.8,N
1573456755.9,286046998.8,N
1573456775.7,286047001.2,N
1573456795.6,286046998.9,N
1573456815.4,286046998.9,N
1573456835.2,286046996.6,N
1573456855.1,286046997.0,N
1573456856.0,286046997.0,N
1573456875.8,286046997.9,N
1573456895.7,286046997.4,N
1573456915.5,286046995.6,Y
1573456935.3,286046997.7,P
1573456955.2,286046996.6,P
1573456975.0,286046996.5,P
1573456975.9,286046996.5,Y
1573456995.8,286047000.2,P
1573457015.6,286046999.9,N
1573457035.4,286047000.5,N
1573457055.3,286047002.3,N
1573457075.1,286047002.1,N
1573457095.8,286047002.8,N
1573457115.7,286047004.3,N
1573457135.5,286047001.3,N
1573457155.4,286047004.4,N
1573457175.2,286047004.0,N
1573457195.0,286047003.4,N
1573457195.9,286047003.4,N
1573457215.8,286047003.5,N
1573457235.6,286047003.2,N
1573457255.4,286047003.4,N
1573457275.3,286047003.9,N
1573457295.1,286047003.5,N
1573457315.9,286047003.6,N
1573457335.7,286047003.7,N
1573457355.5,286047001.7,N
1573457375.4,286047001.3,N
1573457395.2,286047004.0,N
1573457415.0,286047004.1,N
1573457415.9,286047004.1,N
1573457435.8,286047001.4,N
1573457455.6,286047004.0,N
1573457475.5,286047003.1,N
1573457495.3,286047005.7,Y
1573457515.1,286047001.8,P
1573457535.9,286047005.4,P
1573457555.7,286047005.8,P
1573457575.6,286047005.5,Y
1573457595.4,286047001.1,P
1573457615.2,286046998.8,N
1573457635.1,286046998.7,N
1573457636.0,286046998.7,N
1573457655.8,286046998.8,N
1573457675.6,286047000.9,N
1573457695.5,286047000.1,N
1573457715.3,286047002.7,N
1573457735.2,286047000.1,N
1573457755.9,286047001.9,N
1573457775.7,286047004.4,N
1573457795.6,286047004.4,N
1573457815.4,286047005.9,N
1573457835.2,286047005.5,N
1573457855.1,286047007.1,N
1573457856.0,286047007.1,N
1573457875.8,286047007.3,N
1573457895.7,286047006.8,N
1573457915.5,286047008.3,N
1573457935.3,286047007.9,N
1573457955.2,286047006.2,N
1573457975.0,286047007.5,N
1573457975.9,286047007.5,N
1573457995.8,286047005.2,N
1573458015.6,286047002.9,N
1573458035.4,286047003.0,N
1573458055.3,286047001.4,N
1573458075.1,286047003.9,N
1573458095.8,286047003.0,N
1573458115.7,286047003.2,N
1573458135.5,286047005.8,N
1573458155.4,286047005.9,N
1573458175.2,286047005.4,N
1573458195.0,286047004.7,N
1573458195.9,286047004.7,N
1573458215.8,286047006.9,N
1573458235.6,286047007.0,Y
1573458255.5,286047002.1,P
1573458275.3,286046999.7,N
1573458295.1,286047001.2,N
1573458315.9,286047000.4,N
1573458335.7,286047000.1,N
1573458355.5,286047000.4,N
1573458375.4,286047002.8,N
1573458395.2,286047002.7,N
1573458415.1,286047002.7,N
1573458416.0,286047002.7,N
1573458435.8,286047000.2,N
1573458455.6,286047000.6,N
1573458475.5,286046999.8,N
1573458495.3,286047002.4,N
1573458515.1,286046999.9,N
1573458535.9,286047001.0,N
1573458555.7,286047001.0,N
1573458575.6,286047001.2,N
1573458595.4,286047000.0,N
1573458615.2,286047000.7,N
1573458635.1,286046999.9,N
1573458636.0,286046999.9,N
1573458655.8,286047000.2,N
1573458675.7,286047000.8,N
1573458695.5,286047000.5,N
1573458715.3,286046998.1,N
1573458735.2,286046998.1,N
1573458755.9,286047001.1,N
1573458775.7,286046998.2,N
1573458795.6,286046998.7,N
1573458815.4,286046998.2,N
1573458835.3,286047000.6,N
1573458855.1,286047001.1,N
1573458856.0,286047001.1,N
1573458875.8,286046998.2,N
1573458895.7,286046998.7,N
1573458915.5,286046998.7,N
1573458935.3,286046998.5,N
1573458955.2,286046998.8,N
1573458975.0,286046998.6,N
1573458975.9,286046998.6,N
1573458995.8,286046999.7,N
1573459015.6,286046999.3,N
1573459035.4,286046999.0,N
1573459055.3,286046998.8,N
1573459075.1,286047001.1,N
1573459095.8,286046998.4,N
1573459115.7,286046999.5,N
1573459135.5,286046999.7,N
1573459155.4,286047001.6,N
1573459175.2,286047004.3,Y
1573459195.0,286047006.0,P
1573459195.9,286047006.0,N
